Weather History for KBAC - September, 2013

Change the Weather History Date:

Thursday, September 19, 2013

  Actual Average (KJMS) Record (KJMS)
Temperature  
Mean Temperature 60 °F 56 °F  
Max Temperature 68 °F 69 °F 96 °F (1940)
Min Temperature 53 °F 43 °F 18 °F (1929)
Degree Days  
Heating Degree Days 4 10  
Month to date heating degree days 122  
Since 1 July heating degree days 188  
Cooling Degree Days 0 1  
Month to date cooling degree days 27  
Year to date cooling degree days 442  
Growing Degree Days 10 (Base 50)    
Moisture  
Dew Point 57 °F    
Average Humidity 86    
Maximum Humidity 100    
Minimum Humidity 49    
Precipitation  
Precipitation 0.14 in 0.06 in 1.00 in (1961)
Month to date precipitation 1.37  
Year to date precipitation 15.56  
Sea Level Pressure  
Sea Level Pressure 29.77 in    
Wind  
Wind Speed 14 mph (WNW)    
Max Wind Speed 25 mph    
Max Gust Speed 33 mph    
Visibility 8 miles    
Events Fog , Rain    
T = Trace of Precipitation, MM = Missing Value Source: NWS Daily Summary

Daily Weather History Graph

Daily Weather History Graph

Search for Another Location

Airport or City:

Trip Planner

Search our weather history database for the weather conditions in past years. The results will help you decide how hot, cold, wet, or windy it might be!

Date:

Astronomy

Sep. 19, 2013 Rise Set
Actual Time 7:15 AM CDT 7:35 PM CDT
Civil Twilight 6:44 AM CDT 8:05 PM CDT
Nautical Twilight 6:08 AM CDT 8:41 PM CDT
Astronomical Twilight 5:31 AM CDT 9:18 PM CDT
Moon 7:28 PM CDT (9/19) 7:29 AM CDT (9/19)
Length of Visible Light 13h 20m
Length of Day
12h 19m
Full, 100% of the Moon is Illuminated
Sep 19
Full
Sep 26
Last Quarter
Oct 4
New
Oct 11
First Quarter
Oct 18
Full

Hourly Weather History & Observations

Time (CDT) Temp. Dew Point Humidity Pressure Visibility Wind Dir Wind Speed Gust Speed Precip Events Conditions
12:15 AM 68.0 °F 68.0 °F 100% 29.60 in 5.0 mi East 9.2 mph - N/A   Clear
12:35 AM 68.0 °F 68.0 °F 100% 29.62 in 5.0 mi NNW 8.1 mph - N/A   Clear
12:55 AM 66.2 °F 66.2 °F 100% 29.67 in 3.0 mi WNW 6.9 mph - N/A   Clear
1:15 AM 66.2 °F 66.2 °F 100% 29.65 in 3.0 mi NNW 8.1 mph - N/A   Partly Cloudy
1:35 AM 64.4 °F 64.4 °F 100% 29.64 in 2.5 mi Calm Calm - N/A   Clear
1:55 AM 64.4 °F 64.4 °F 100% 29.64 in 0.8 mi West 3.5 mph - N/A   Mist
2:15 AM 62.6 °F 62.6 °F 100% 29.66 in 2.0 mi SSW 3.5 mph - N/A   Clear
2:35 AM 66.2 °F 66.2 °F 100% 29.65 in 3.0 mi West 11.5 mph - N/A   Scattered Clouds
2:55 AM 62.6 °F 62.6 °F 100% 29.64 in 0.2 mi Calm Calm - N/A Fog Fog
3:15 AM 66.2 °F 66.2 °F 100% 29.64 in 4.0 mi West 16.1 mph - N/A   Partly Cloudy
3:35 AM 64.4 °F 64.4 °F 100% 29.64 in 8.0 mi West 13.8 mph - N/A   Clear
3:55 AM 64.4 °F 64.4 °F 100% 29.63 in 10.0 mi West 12.7 mph - N/A   Clear
4:15 AM 64.4 °F 64.4 °F 100% 29.63 in 10.0 mi West 13.8 mph - N/A   Clear
4:35 AM 64.4 °F 64.4 °F 100% 29.63 in 10.0 mi West 16.1 mph - N/A   Clear
4:55 AM 64.4 °F 64.4 °F 100% 29.64 in 10.0 mi West 13.8 mph - N/A   Clear
5:15 AM 62.6 °F 62.6 °F 100% 29.65 in 10.0 mi West 13.8 mph - N/A   Clear
5:35 AM 64.4 °F 64.4 °F 100% 29.67 in 10.0 mi WNW 13.8 mph - N/A   Clear
5:55 AM 62.6 °F 62.6 °F 100% 29.68 in 10.0 mi WNW 13.8 mph - N/A   Clear
6:15 AM 62.6 °F 62.6 °F 100% 29.69 in 10.0 mi WNW 17.3 mph 21.9 mph N/A   Clear
6:35 AM 62.6 °F 62.6 °F 100% 29.70 in 10.0 mi WNW 19.6 mph 24.2 mph N/A   Clear
6:55 AM 62.6 °F 62.6 °F 100% 29.71 in 10.0 mi NW 16.1 mph 25.3 mph N/A   Mostly Cloudy
7:15 AM 62.6 °F 62.6 °F 100% 29.71 in 10.0 mi WNW 21.9 mph 25.3 mph N/A   Overcast
7:35 AM 62.6 °F 62.6 °F 100% 29.72 in 9.0 mi WNW 21.9 mph 26.5 mph N/A   Overcast
7:55 AM 62.6 °F 62.6 °F 100% 29.74 in 9.0 mi WNW 19.6 mph 26.5 mph N/A   Overcast
8:15 AM 59.0 °F 59.0 °F 100% 29.74 in 10.0 mi WNW 19.6 mph 29.9 mph N/A   Mostly Cloudy
8:35 AM 59.0 °F 59.0 °F 100% 29.74 in 10.0 mi NW 18.4 mph 29.9 mph N/A   Partly Cloudy
8:55 AM 59.0 °F 59.0 °F 100% 29.75 in 10.0 mi NW 18.4 mph 26.5 mph N/A   Clear
9:15 AM 59.0 °F 59.0 °F 100% 29.75 in 10.0 mi NW 20.7 mph 25.3 mph N/A   Clear
9:35 AM 62.6 °F 59.0 °F 88% 29.76 in 10.0 mi WNW 18.4 mph 27.6 mph N/A   Clear
9:55 AM 62.6 °F 57.2 °F 82% 29.77 in 10.0 mi WNW 25.3 mph 33.4 mph N/A   Clear
10:15 AM 64.4 °F 57.2 °F 77% 29.78 in 10.0 mi WNW 23.0 mph 29.9 mph N/A   Clear
10:35 AM 64.4 °F 57.2 °F 77% 29.78 in 10.0 mi NW 20.7 mph 28.8 mph N/A   Clear
10:55 AM 64.4 °F 57.2 °F 77% 29.77 in 10.0 mi WNW 25.3 mph 31.1 mph N/A   Clear
11:15 AM 66.2 °F 57.2 °F 73% 29.77 in 10.0 mi WNW 18.4 mph 27.6 mph N/A   Clear
11:35 AM 66.2 °F 55.4 °F 68% 29.78 in 10.0 mi WNW 24.2 mph 32.2 mph N/A   Clear
11:55 AM 66.2 °F 53.6 °F 64% 29.78 in 10.0 mi WNW 25.3 mph 33.4 mph N/A   Clear
12:15 PM 66.2 °F 50.0 °F 56% 29.78 in 10.0 mi WNW 25.3 mph 31.1 mph N/A   Clear
12:35 PM 68.0 °F 50.0 °F 52% 29.79 in 10.0 mi WNW 20.7 mph 29.9 mph N/A   Clear
12:55 PM 68.0 °F 48.2 °F 49% 29.79 in 10.0 mi NW 23.0 mph 28.8 mph N/A   Clear
1:15 PM 68.0 °F 48.2 °F 49% 29.80 in 10.0 mi WNW 20.7 mph 31.1 mph N/A   Clear
1:35 PM 68.0 °F 48.2 °F 49% 29.80 in 10.0 mi WNW 23.0 mph 28.8 mph N/A   Clear
1:55 PM 68.0 °F 48.2 °F 49% 29.81 in 10.0 mi WNW 17.3 mph 25.3 mph N/A   Clear
2:15 PM 68.0 °F 48.2 °F 49% 29.81 in 10.0 mi WNW 20.7 mph 28.8 mph N/A   Clear
2:35 PM 68.0 °F 48.2 °F 49% 29.81 in 10.0 mi WNW 20.7 mph 27.6 mph N/A   Clear
2:55 PM 66.2 °F 50.0 °F 56% 29.81 in 10.0 mi WNW 20.7 mph 26.5 mph N/A   Clear
3:15 PM 66.2 °F 51.8 °F 60% 29.81 in 10.0 mi NW 20.7 mph 28.8 mph N/A   Partly Cloudy
3:35 PM 66.2 °F 50.0 °F 56% 29.82 in 10.0 mi WNW 20.7 mph 29.9 mph N/A   Partly Cloudy
3:55 PM 64.4 °F 50.0 °F 59% 29.82 in 10.0 mi WNW 21.9 mph 27.6 mph N/A   Partly Cloudy
4:15 PM 64.4 °F 50.0 °F 59% 29.83 in 10.0 mi WNW 16.1 mph 25.3 mph N/A   Mostly Cloudy
4:35 PM 64.4 °F 51.8 °F 64% 29.83 in 10.0 mi WNW 19.6 mph 26.5 mph N/A   Overcast
4:55 PM 62.6 °F 51.8 °F 68% 29.84 in 10.0 mi West 18.4 mph 27.6 mph N/A   Overcast
5:15 PM 60.8 °F 53.6 °F 77% 29.84 in 10.0 mi WNW 18.4 mph 25.3 mph N/A   Overcast
5:35 PM 60.8 °F 53.6 °F 77% 29.84 in 10.0 mi WNW 16.1 mph 25.3 mph N/A   Overcast
5:55 PM 59.0 °F 53.6 °F 82% 29.85 in 10.0 mi West 18.4 mph 26.5 mph N/A   Overcast
6:15 PM 59.0 °F 53.6 °F 82% 29.85 in 10.0 mi WNW 15.0 mph - N/A   Overcast
6:35 PM 59.0 °F 53.6 °F 82% 29.85 in 10.0 mi WNW 18.4 mph - N/A   Overcast
6:55 PM 57.2 °F 55.4 °F 94% 29.85 in 4.0 mi West 20.7 mph 27.6 mph N/A Rain Light Rain
7:15 PM 57.2 °F 55.4 °F 94% 29.85 in 10.0 mi West 13.8 mph 23.0 mph N/A   Mostly Cloudy
7:35 PM 55.4 °F 55.4 °F 100% 29.86 in 5.0 mi West 15.0 mph 26.5 mph N/A Rain Light Rain
7:55 PM 55.4 °F 55.4 °F 100% 29.86 in 6.0 mi WNW 15.0 mph 18.4 mph N/A Rain Light Rain
8:15 PM 55.4 °F 55.4 °F 100% 29.86 in 7.0 mi WNW 17.3 mph 21.9 mph N/A   Overcast
8:35 PM 55.4 °F 55.4 °F 100% 29.87 in 4.0 mi WNW 17.3 mph 24.2 mph N/A Rain Light Rain
8:55 PM 55.4 °F 55.4 °F 100% 29.87 in 5.0 mi WNW 19.6 mph 25.3 mph N/A Rain Light Rain
9:15 PM 55.4 °F 55.4 °F 100% 29.88 in 1.5 mi NW 17.3 mph 24.2 mph 0.05 in Rain Rain
9:35 PM 55.4 °F 55.4 °F 100% 29.89 in 1.8 mi NW 17.3 mph 23.0 mph 0.10 in Rain Rain
9:55 PM 55.4 °F 55.4 °F 100% 29.89 in 5.0 mi NNW 11.5 mph - 0.14 in Rain Light Rain
10:15 PM 55.4 °F 55.4 °F 100% 29.89 in 10.0 mi NNW 13.8 mph 18.4 mph N/A Rain Light Rain
10:35 PM 55.4 °F 55.4 °F 100% 29.90 in 10.0 mi NNW 9.2 mph - N/A Rain Light Rain
10:55 PM 55.4 °F 55.4 °F 100% 29.90 in 10.0 mi NW 10.4 mph - N/A Rain Light Rain
11:15 PM 55.4 °F 55.4 °F 100% 29.91 in 10.0 mi NW 11.5 mph - N/A   Overcast
11:35 PM 53.6 °F 53.6 °F 100% 29.92 in 10.0 mi NNW 13.8 mph - N/A   Overcast
11:55 PM 53.6 °F 53.6 °F 100% 29.92 in 10.0 mi NW 11.5 mph - N/A   Overcast